DW5181 Weather Reports


Display with metric or nautical units.
time (UTC)temp
F
wind
direction
speed
MPH
gust
MPH
rain 1hr
in
rain 24hr
in
rain mn
in
humidity
%
barometer
mb
20260507222032 62 110 4.0 12.0 0.00 0.14 0.08 32 1004.8
20260507221522 62 146 2.0 9.0 0.00 0.14 0.08 33 1004.7
20260507221034 62 72 3.0 9.0 0.00 0.14 0.08 32 1004.7
20260507220529 63 155 3.0 8.0 0.00 0.14 0.08 33 1004.7
20260507220038 63 162 3.0 9.0 0.00 0.14 0.08 32 1004.6
20260507215528 63 184 2.0 11.0 0.00 0.14 0.08 33 1004.6
20260507215039 63 210 3.0 11.0 0.00 0.14 0.08 33 1004.6
20260507214531 63 198 5.0 12.0 0.00 0.14 0.08 31 1004.5
20260507214021 63 153 3.0 9.0 0.00 0.14 0.08 32 1004.5
20260507213532 63 133 5.0 9.0 0.00 0.14 0.08 32 1004.4
20260507213022 63 198 2.0 9.0 0.00 0.14 0.08 32 1004.4
20260507212536 63 55 3.0 13.0 0.00 0.14 0.08 32 1004.3
20260507212027 63 149 6.0 11.0 0.00 0.14 0.08 31 1004.4
20260507211539 63 167 4.0 9.0 0.00 0.14 0.08 32 1004.5
20260507211029 64 245 4.0 9.0 0.00 0.14 0.08 33 1004.4
20260507210540 63 104 4.0 9.0 0.00 0.14 0.08 32 1004.3
20260507210030 63 82 4.0 8.0 0.00 0.16 0.08 32 1004.3
20260507205520 63 167 4.0 8.0 0.00 0.16 0.08 32 1004.2
20260507205051 62 146 3.0 10.0 0.00 0.16 0.08 31 1004.4
20260507204521 63 143 4.0 10.0 0.00 0.16 0.08 30 1004.4
20260507204037 63 157 3.0 11.0 0.00 0.16 0.08 32 1004.3
20260507203529 63 166 7.0 11.0 0.00 0.16 0.08 31 1004.4
20260507203021 63 205 3.0 11.0 0.00 0.16 0.08 31 1004.4
20260507202531 63 141 5.0 9.0 0.00 0.16 0.08 31 1004.3
20260507202021 63 151 3.0 12.0 0.00 0.16 0.08 31 1004.3
20260507201532 62 155 3.0 12.0 0.00 0.16 0.08 31 1004.4
20260507201024 62 198 4.0 11.0 0.00 0.16 0.08 32 1004.4
20260507200534 62 146 5.0 11.0 0.00 0.16 0.08 30 1004.3
20260507200028 62 186 4.0 11.0 0.00 0.17 0.08 30 1004.4
20260507195559 63 187 6.0 10.0 0.00 0.17 0.08 31 1004.6
20260507195028 63 135 2.0 10.0 0.00 0.17 0.08 32 1004.5
20260507194539 63 165 5.0 13.0 0.00 0.17 0.08 30 1004.6
20260507194029 63 117 3.0 13.0 0.00 0.17 0.08 29 1004.6
20260507193540 63 87 3.0 11.0 0.00 0.17 0.08 33 1004.6
20260507193051 63 158 5.0 12.0 0.00 0.17 0.08 31 1004.6
20260507192601 63 111 5.0 12.0 0.00 0.17 0.08 30 1004.7
20260507192031 63 118 3.0 13.0 0.00 0.17 0.08 30 1004.7
20260507191522 63 90 5.0 13.0 0.00 0.17 0.08 29 1004.7
20260507191033 63 132 5.0 11.0 0.00 0.17 0.08 30 1004.8
20260507190548 64 108 5.0 8.0 0.00 0.17 0.08 31 1004.9
20260507190037 64 141 3.0 9.0 0.00 0.17 0.08 33 1004.7
20260507185528 63 181 4.0 13.0 0.00 0.17 0.08 32 1004.9
20260507185059 63 134 4.0 15.0 0.00 0.17 0.08 33 1004.9
20260507184528 63 70 5.0 15.0 0.00 0.17 0.08 31 1004.8
20260507184037 64 127 4.0 9.0 0.00 0.17 0.08 32 1004.8
20260507183528 63 18 1.0 14.0 0.00 0.17 0.08 36 1005.0
20260507183038 63 91 5.0 11.0 0.00 0.17 0.08 33 1005.0
20260507182529 63 148 5.0 9.0 0.00 0.17 0.08 35 1005.0
20260507182023 62 216 4.0 8.0 0.00 0.17 0.08 34 1004.9
20260507181555 62 153 3.0 9.0 0.00 0.17 0.08 35 1005.3
20260507181025 63 159 5.0 10.0 0.00 0.17 0.08 35 1005.3
20260507180555 63 91 3.0 8.0 0.00 0.17 0.08 35 1005.3
20260507180024 63 23 3.0 8.0 0.00 0.17 0.08 37 1005.3
20260507175534 62 187 3.0 13.0 0.00 0.17 0.08 38 1005.3
20260507175025 62 168 2.0 13.0 0.00 0.17 0.08 38 1005.2
20260507174535 62 91 4.0 11.0 0.00 0.17 0.08 41 1005.2
20260507174025 62 164 4.0 11.0 0.00 0.17 0.08 42 1005.3
20260507173557 62 109 3.0 8.0 0.00 0.17 0.08 41 1005.2
20260507173025 62 201 4.0 7.0 0.00 0.17 0.08 44 1005.2
20260507172556 61 143 3.0 9.0 0.00 0.17 0.08 46 1005.3
20260507172029 61 174 5.0 7.0 0.00 0.17 0.08 47 1005.4
20260507171540 61 195 5.0 11.0 0.00 0.17 0.08 47 1005.4
20260507171050 61 264 4.0 11.0 0.00 0.17 0.08 49 1005.4
20260507170539 61 40 4.0 7.0 0.00 0.17 0.08 53 1005.5
20260507170050 61 179 5.0 17.0 0.00 0.17 0.08 52 1005.4
20260507165540 61 181 7.0 17.0 0.00 0.17 0.08 51 1005.6
20260507165029 61 86 3.0 10.0 0.00 0.17 0.08 52 1005.5
20260507164558 60 100 4.0 10.0 0.00 0.17 0.08 51 1005.6
20260507164029 60 141 3.0 6.0 0.00 0.17 0.08 53 1005.8
20260507163540 60 141 4.0 8.0 0.00 0.17 0.08 54 1005.8
20260507163034 60 94 2.0 8.0 0.00 0.17 0.08 55 1005.9
20260507162524 61 105 2.0 11.0 0.00 0.17 0.08 53 1005.9
20260507162036 61 172 4.0 12.0 0.00 0.17 0.08 53 1006.0
20260507161528 61 59 5.0 13.0 0.00 0.17 0.08 51 1005.9
20260507161039 61 49 5.0 10.0 0.00 0.17 0.08 51 1006.0
20260507160530 61 96 3.0 9.0 0.00 0.17 0.08 52 1006.1
20260507160020 61 158 3.0 10.0 0.00 0.17 0.08 53 1006.2
20260507155532 61 121 3.0 10.0 0.00 0.17 0.08 53 1006.1
20260507155042 60 153 4.0 8.0 0.00 0.17 0.08 51 1006.4
20260507154552 60 76 3.0 8.0 0.00 0.17 0.08 50 1006.3
20260507154025 60 139 4.0 11.0 0.00 0.17 0.08 51 1006.3
20260507153535 60 60 6.0 11.0 0.00 0.17 0.08 50 1006.3
20260507153026 60 209 2.0 5.0 0.00 0.17 0.08 50 1006.3
20260507152538 59 136 3.0 5.0 0.00 0.17 0.08 51 1006.5
20260507152029 59 160 3.0 7.0 0.00 0.17 0.08 51 1006.6
20260507151539 60 7 2.0 9.0 0.00 0.17 0.08 52 1006.5
20260507151028 59 70 4.0 10.0 0.00 0.17 0.08 50 1006.5
20260507150620 59 101 4.0 13.0 0.00 0.17 0.08 52 1006.6
20260507150046 59 72 5.0 13.0 0.00 0.17 0.08 51 1006.7
20260507145556 59 132 3.0 8.0 0.00 0.17 0.08 55 1006.8
20260507145024 58 177 2.0 8.0 0.00 0.17 0.08 55 1006.8
20260507144539 58 139 4.0 8.0 0.00 0.17 0.08 54 1006.9
20260507144050 59 131 3.0 5.0 0.00 0.17 0.08 55 1006.9
20260507143520 58 51 2.0 6.0 0.00 0.17 0.08 56 1006.9
20260507143052 58 167 3.0 9.0 0.00 0.17 0.08 56 1007.0
20260507142542 58 120 4.0 9.0 0.00 0.17 0.08 55 1007.0
20260507142032 57 147 1.0 5.0 0.00 0.17 0.08 57 1006.9
20260507141541 57 128 2.0 7.0 0.00 0.17 0.08 57 1006.9
20260507141031 57 161 2.0 7.0 0.00 0.17 0.08 61 1006.9
20260507140522 57 72 2.0 6.0 0.00 0.17 0.08 59 1006.9
20260507140033 57 127 2.0 9.0 0.00 0.17 0.08 62 1006.9
20260507135524 56 79 3.0 7.0 0.00 0.17 0.08 59 1006.8
20260507135039 56 147 3.0 5.0 0.00 0.17 0.08 61 1006.9
20260507134530 56 231 2.0 5.0 0.00 0.17 0.08 62 1006.9
20260507134040 56 149 3.0 7.0 0.00 0.17 0.08 62 1007.0
20260507133530 55 221 3.0 7.0 0.00 0.17 0.08 64 1007.1
20260507133021 55 58 2.0 4.0 0.00 0.17 0.08 64 1007.1
20260507132531 55 137 3.0 4.0 0.00 0.17 0.08 64 1007.2
20260507132022 55 161 2.0 6.0 0.00 0.17 0.08 67 1007.3
20260507131532 54 158 2.0 5.0 0.00 0.17 0.08 69 1007.3
20260507131027 54 230 4.0 5.0 0.00 0.17 0.08 67 1007.3
20260507130540 53 90 3.0 6.0 0.00 0.17 0.08 70 1007.4
20260507130031 53 206 3.0 6.0 0.00 0.17 0.08 70 1007.4
20260507125522 53 222 4.0 8.0 0.00 0.17 0.08 71 1007.6
20260507125033 52 205 3.0 8.0 0.00 0.17 0.08 74 1007.4
20260507124522 52 241 3.0 5.0 0.00 0.17 0.08 77 1007.4
20260507124033 51 191 1.0 5.0 0.00 0.17 0.08 79 1007.4
20260507123524 51 91 3.0 5.0 0.00 0.17 0.08 81 1007.2
20260507123035 51 125 2.0 4.0 0.00 0.17 0.08 83 1007.3
20260507122530 50 195 1.0 3.0 0.00 0.17 0.08 86 1007.3
20260507122041 50 186 1.0 4.0 0.00 0.17 0.08 86 1007.3
20260507121530 49 63 2.0 4.0 0.00 0.17 0.08 87 1007.4
20260507121101 49 169 2.0 4.0 0.00 0.17 0.08 88 1007.2
20260507120532 49 174 3.0 4.0 0.00 0.17 0.08 89 1007.3
20260507120021 49 132 1.0 3.0 0.00 0.17 0.08 91 1007.3
20260507115532 48 132 2.0 3.0 0.00 0.17 0.08 91 1007.3
20260507115023 49 79 0.0 3.0 0.00 0.17 0.08 92 1007.1
20260507114533 48 79 1.0 3.0 0.00 0.17 0.08 92 1007.0
20260507114027 48 58 1.0 3.0 0.00 0.17 0.08 93 1007.3
20260507113538 48 187 0.0 0.0 0.00 0.17 0.08 93 1007.2
20260507113048 49 187 0.0 0.0 0.00 0.17 0.08 93 1007.1
20260507112538 48 187 0.0 0.0 0.00 0.17 0.08 93 1007.1
20260507112049 49 187 0.0 0.0 0.00 0.17 0.08 93 1007.0
20260507111520 49 187 0.0 0.0 0.00 0.17 0.08 93 1007.0
20260507111031 49 187 0.0 0.0 0.00 0.17 0.08 93 1007.0
20260507110523 48 187 0.0 0.0 0.01 0.17 0.08 93 1007.1
20260507110034 48 187 0.0 0.0 0.01 0.17 0.08 93 1007.2
20260507105524 48 187 0.0 0.0 0.02 0.17 0.08 93 1007.3
20260507105039 48 187 0.0 0.0 0.02 0.17 0.08 93 1007.3
20260507104529 48 187 0.0 0.0 0.02 0.17 0.08 92 1007.1
20260507104100 49 187 0.0 0.0 0.02 0.17 0.08 93 1007.2
20260507103551 49 187 0.0 0.0 0.02 0.17 0.08 92 1006.9
20260507103021 48 187 0.0 0.0 0.03 0.17 0.08 92 1006.7
20260507102531 48 187 0.0 0.0 0.04 0.17 0.08 92 1006.8
20260507102021 48 187 0.0 0.0 0.05 0.17 0.08 92 1006.9
20260507101552 48 187 0.0 0.0 0.05 0.17 0.08 92 1006.8
20260507101022 49 187 0.0 0.0 0.05 0.17 0.08 92 1006.7
20260507100532 49 187 0.0 0.0 0.04 0.16 0.07 91 1006.5
20260507100027 49 187 0.0 1.0 0.05 0.16 0.07 91 1006.5
20260507095539 49 187 0.0 2.0 0.04 0.15 0.06 91 1006.4
20260507095030 49 187 0.0 2.0 0.04 0.15 0.06 91 1006.3
20260507094540 49 187 0.0 2.0 0.04 0.15 0.06 91 1006.5
20260507094030 49 185 1.0 2.0 0.04 0.15 0.06 90 1006.7
20260507093521 49 96 1.0 2.0 0.04 0.15 0.06 90 1006.5
20260507093033 49 96 1.0 2.0 0.03 0.14 0.05 89 1006.5
20260507092524 50 113 0.0 2.0 0.02 0.13 0.04 89 1006.5
20260507092035 50 113 1.0 6.0 0.01 0.12 0.03 89 1006.6
20260507091530 50 105 2.0 6.0 0.01 0.12 0.03 88 1006.5
20260507091040 50 127 2.0 5.0 0.01 0.12 0.03 88 1006.8
20260507090529 50 105 2.0 5.0 0.01 0.11 0.02 87 1006.7
20260507090021 50 41 1.0 6.0 0.01 0.11 0.02 87 1006.5
20260507085532 51 199 2.0 4.0 0.01 0.11 0.02 87 1006.5
20260507085042 51 189 1.0 3.0 0.02 0.11 0.02 87 1006.5
20260507084532 51 143 1.0 3.0 0.02 0.11 0.02 87 1006.3
20260507084022 51 68 1.0 3.0 0.02 0.11 0.02 87 1006.3
20260507083532 51 161 1.0 4.0 0.02 0.11 0.02 87 1006.2
20260507083027 51 124 1.0 5.0 0.02 0.11 0.02 86 1006.1
20260507082538 51 193 3.0 5.0 0.02 0.11 0.02 86 1006.0
20260507082049 51 94 0.0 7.0 0.02 0.11 0.02 86 1005.9
20260507081538 51 93 1.0 7.0 0.02 0.11 0.02 86 1006.2
20260507081029 51 150 3.0 6.0 0.02 0.11 0.02 86 1006.3
20260507080519 51 157 4.0 8.0 0.01 0.10 0.01 86 1006.3
20260507080030 52 132 4.0 9.0 0.01 0.10 0.01 85 1006.3
20260507075520 52 176 3.0 11.0 0.01 0.10 0.01 83 1006.0
20260507075032 53 116 3.0 11.0 0.00 0.09 0.00 83 1006.2
20260507074527 53 148 4.0 9.0 0.00 0.09 0.00 82 1006.2
20260507074037 53 127 2.0 4.0 0.00 0.09 0.00 84 1005.9
20260507073527 53 239 2.0 6.0 0.00 0.09 0.00 84 1005.6
20260507073058 53 262 3.0 6.0 0.00 0.09 0.00 83 1005.6
20260507072527 53 70 2.0 5.0 0.00 0.09 0.00 84 1005.7
20260507072038 53 150 3.0 5.0 0.00 0.09 0.00 85 1005.6
20260507071529 53 53 2.0 7.0 0.00 0.09 0.00 85 1005.8
20260507071020 53 144 3.0 7.0 0.00 0.09 0.00 86 1005.6
20260507070532 54 222 1.0 3.0 0.00 0.09 0.00 87 1005.5
20260507070048 54 143 2.0 4.0 0.00 0.09 0.00 86 1005.4
20260507065536 54 139 1.0 5.0 0.00 0.09 0.00 86 1005.6
20260507065028 54 131 2.0 5.0 0.00 0.09 0.00 86 1005.6
20260507064539 54 33 1.0 4.0 0.00 0.09 0.00 86 1005.5
20260507064030 54 33 1.0 7.0 0.00 0.09 0.00 86 1005.5
20260507063600 54 181 4.0 7.0 0.00 0.09 0.00 87 1005.4
20260507063028 54 176 3.0 6.0 0.00 0.09 0.00 87 1005.3
20260507062600 54 159 3.0 8.0 0.00 0.09 0.00 87 1005.2
20260507062029 55 93 4.0 8.0 0.00 0.09 0.00 87 1005.4
20260507061539 55 160 2.0 6.0 0.00 0.09 0.00 87 1005.4
20260507061034 55 214 2.0 5.0 0.00 0.09 0.00 87 1005.4
20260507060524 55 168 1.0 4.0 0.00 0.09 0.00 87 1005.6
20260507060036 55 129 3.0 9.0 0.00 0.09 0.00 87 1005.5
20260507055527 56 112 3.0 10.0 0.00 0.09 0.00 88 1005.5
20260507055037 56 70 2.0 8.0 0.00 0.09 0.00 89 1005.7
20260507054527 56 229 2.0 3.0 0.00 0.09 0.00 89 1005.7
20260507054059 56 130 2.0 4.0 0.00 0.09 0.00 89 1005.7
20260507053529 56 195 1.0 8.0 0.00 0.09 0.00 89 1005.6
20260507053039 57 105 3.0 8.0 0.00 0.09 0.00 89 1005.5
20260507052533 57 77 2.0 7.0 0.00 0.09 0.00 89 1005.3
20260507052022 57 188 3.0 6.0 0.00 0.09 0.00 90 1005.2
20260507051534 57 185 2.0 9.0 0.00 0.09 0.00 90 1005.5
20260507051025 57 205 2.0 9.0 0.00 0.09 0.00 90 1005.4
20260507050536 58 129 3.0 9.0 0.00 0.09 0.00 89 1005.5
20260507050046 58 143 5.0 9.0 0.00 0.09 0.00 89 1005.6
20260507045536 58 136 5.0 8.0 0.00 0.09 0.00 89 1005.5
20260507045026 58 68 3.0 8.0 0.00 0.09 0.00 91 1005.4
20260507044537 59 190 1.0 5.0 0.00 0.09 0.00 92 1005.3
20260507044047 59 77 1.0 4.0 0.00 0.09 0.00 93 1005.1
20260507043521 59 94 2.0 10.0 0.00 0.09 0.00 93 1005.3
20260507043031 59 174 3.0 10.0 0.00 0.09 0.00 93 1005.5
20260507042522 59 74 2.0 6.0 0.00 0.09 0.00 93 1005.3
20260507042033 59 91 2.0 6.0 0.00 0.09 0.00 94 1005.4
20260507041524 59 25 1.0 6.0 0.00 0.09 0.00 94 1005.3
20260507041033 59 54 2.0 5.0 0.00 0.09 0.00 94 1005.5
20260507040523 59 89 3.0 6.0 0.00 0.09 0.00 94 1005.5
20260507040031 59 90 2.0 8.0 0.00 0.09 0.09 94 1005.5
20260507035541 59 45 2.0 8.0 0.00 0.09 0.09 94 1005.4
20260507035034 59 72 5.0 9.0 0.00 0.09 0.09 94 1005.2
20260507034525 59 70 3.0 10.0 0.00 0.09 0.09 93 1005.3
20260507034034 59 28 2.0 10.0 0.00 0.09 0.09 93 1005.5
20260507033524 59 111 3.0 11.0 0.00 0.09 0.09 93 1005.4
20260507033034 59 80 4.0 11.0 0.00 0.09 0.09 93 1005.2
20260507032525 59 66 3.0 9.0 0.00 0.09 0.09 92 1005.0
20260507032056 59 80 2.0 9.0 0.00 0.09 0.09 92 1004.8
20260507031526 59 43 4.0 7.0 0.00 0.09 0.09 92 1004.7
20260507031038 59 37 3.0 6.0 0.00 0.09 0.09 92 1004.7
20260507030532 59 58 2.0 5.0 0.00 0.09 0.09 92 1004.6
20260507030022 59 340 2.0 13.0 0.00 0.09 0.09 92 1004.6
20260507025552 59 88 3.0 13.0 0.00 0.09 0.09 92 1004.8
20260507025021 59 34 2.0 8.0 0.00 0.09 0.09 92 1004.7
20260507024532 59 54 3.0 7.0 0.00 0.09 0.09 92 1004.8
20260507024024 59 55 4.0 7.0 0.00 0.09 0.09 92 1004.8
20260507023535 59 14 2.0 9.0 0.00 0.09 0.09 92 1004.9
20260507023025 59 103 2.0 9.0 0.00 0.09 0.09 92 1005.0
20260507022536 59 42 1.0 8.0 0.00 0.09 0.09 92 1005.0
20260507022032 59 51 2.0 11.0 0.00 0.09 0.09 92 1005.0
20260507021523 59 65 4.0 11.0 0.00 0.09 0.09 93 1004.9
20260507021033 59 44 2.0 11.0 0.00 0.09 0.09 93 1004.9
20260507020524 58 51 5.0 11.0 0.00 0.09 0.09 93 1005.0
20260507020035 58 79 3.0 11.0 0.00 0.09 0.09 93 1005.1
20260507015526 58 61 4.0 12.0 0.00 0.09 0.09 93 1005.1
20260507015035 58 60 4.0 12.0 0.00 0.09 0.09 93 1005.2
20260507014526 58 332 2.0 9.0 0.00 0.09 0.09 93 1005.0
20260507014021 58 40 3.0 9.0 0.00 0.09 0.09 93 1005.2
20260507013532 58 50 3.0 13.0 0.00 0.09 0.09 93 1005.2
20260507013022 58 53 1.0 13.0 0.00 0.09 0.09 93 1005.2
20260507012534 58 33 5.0 12.0 0.00 0.09 0.09 93 1005.3
20260507012025 58 80 4.0 12.0 0.00 0.09 0.09 93 1005.3
20260507011557 58 41 2.0 12.0 0.00 0.09 0.09 93 1005.3
20260507011027 57 40 1.0 9.0 0.00 0.09 0.09 93 1005.3
20260507010539 57 49 1.0 10.0 0.01 0.09 0.09 93 1005.4
20260507010028 57 65 3.0 10.0 0.01 0.09 0.09 93 1005.4
20260507005558 57 30 4.0 8.0 0.01 0.09 0.09 93 1005.3
20260507005032 57 54 2.0 10.0 0.01 0.09 0.09 94 1005.3
20260507004522 57 15 4.0 12.0 0.01 0.09 0.09 94 1005.4
20260507004033 57 24 2.0 12.0 0.01 0.09 0.09 94 1005.5
20260507003523 57 41 2.0 10.0 0.03 0.09 0.09 94 1005.4
20260507003034 57 31 3.0 9.0 0.03 0.09 0.09 94 1005.4
20260507002526 57 350 3.0 12.0 0.04 0.09 0.09 93 1005.3
20260507002036 57 60 4.0 12.0 0.05 0.09 0.09 93 1005.2
20260507001526 57 31 4.0 16.0 0.05 0.09 0.09 93 1005.2
20260507001019 57 24 4.0 16.0 0.05 0.09 0.09 93 1005.1
20260507000531 57 357 1.0 8.0 0.04 0.08 0.08 93 1005.2
20260507000023 57 39 4.0 9.0 0.04 0.08 0.08 93 1005.2
20260506235533 57 307 2.0 9.0 0.04 0.08 0.08 93 1005.3
20260506235024 57 360 2.0 6.0 0.04 0.08 0.08 93 1005.3
20260506234535 57 299 3.0 7.0 0.04 0.08 0.08 93 1005.2
20260506234025 57 49 3.0 11.0 0.04 0.08 0.08 92 1005.2
20260506233537 57 84 4.0 11.0 0.02 0.06 0.06 92 1005.2
20260506233027 57 336 3.0 9.0 0.02 0.06 0.06 92 1005.1
20260506232522 58 357 3.0 9.0 0.01 0.05 0.05 92 1005.3
20260506232033 58 32 3.0 10.0 0.00 0.04 0.04 92 1005.3
20260506231523 58 51 3.0 10.0 0.00 0.04 0.04 92 1005.2
20260506231055 58 15 3.0 11.0 0.00 0.04 0.04 92 1005.2
20260506230544 58 350 4.0 11.0 0.01 0.04 0.04 91 1005.3
20260506230033 58 328 5.0 11.0 0.01 0.04 0.04 91 1005.4
20260506225524 58 349 4.0 8.0 0.01 0.04 0.04 91 1005.4
20260506225035 59 342 3.0 12.0 0.01 0.04 0.04 91 1005.3
20260506224524 59 17 5.0 13.0 0.01 0.04 0.04 91 1005.3
20260506224034 59 91 6.0 15.0 0.01 0.04 0.04 91 1005.3
20260506223530 59 28 5.0 15.0 0.01 0.04 0.04 91 1005.4
20260506223040 59 8 4.0 8.0 0.01 0.04 0.04 91 1005.4
20260506222551 59 35 3.0 9.0 0.01 0.04 0.04 91 1005.6